Weather History for TJSJ - February, 2014

Change the Weather History Date:

Sunday, February 23, 2014

  Actual Average Record
Temperature  
Mean Temperature 79 °F 78 °F  
Max Temperature 84 °F 84 °F 89 °F (1964)
Min Temperature 73 °F 72 °F 64 °F (1956)
Degree Days  
Heating Degree Days 0 0  
Month to date heating degree days 0 0  
Since 1 July heating degree days 0 0  
Cooling Degree Days 14 13  
Month to date cooling degree days 337 299  
Year to date cooling degree days 816 690  
Growing Degree Days 28 (Base 50)    
Moisture  
Dew Point 69 °F    
Average Humidity 71    
Maximum Humidity 87    
Minimum Humidity 55    
Precipitation  
Precipitation T in 0.08 in 3.98 in (1918)
Month to date precipitation 3.39 2.02  
Year to date precipitation 5.93 5.78  
Sea Level Pressure  
Sea Level Pressure 30.05 in    
Wind  
Wind Speed 9 mph (East)    
Max Wind Speed 21 mph    
Max Gust Speed 25 mph    
Visibility 10 miles    
Events Rain    
T = Trace of Precipitation, MM = Missing Value Source: NWS Daily Summary

Daily Weather History Graph

Daily Weather History Graph

Search for Another Location

Airport or City:

Trip Planner

Search our weather history database for the weather conditions in past years. The results will help you decide how hot, cold, wet, or windy it might be!

Date:

Astronomy

Feb. 23, 2014 Rise Set
Actual Time 6:47 AM AST 6:27 PM AST
Civil Twilight 6:24 AM AST 6:50 PM AST
Nautical Twilight 5:59 AM AST 7:15 PM AST
Astronomical Twilight 5:34 AM AST 7:40 PM AST
Moon 1:18 AM AST (2/23) 12:50 PM AST (2/23)
Length of Visible Light 12h 25m
Length of Day
11h 40m
Last Quarter, 39% of the Moon is Illuminated
Feb 23
Last Quarter
Mar 1
New
Mar 8
First Quarter
Mar 16
Full
Mar 23
Last Quarter

Hourly Weather History & Observations

Time (AST) Temp. Heat Index Dew Point Humidity Pressure Visibility Wind Dir Wind Speed Gust Speed Precip Events Conditions
12:56 AM 75.9 °F - 70.0 °F 82% 30.06 in 10.0 mi East 6.9 mph - N/A   Scattered Clouds
1:56 AM 75.9 °F - 70.0 °F 82% 30.05 in 10.0 mi Calm Calm - N/A   Scattered Clouds
2:56 AM 75.9 °F - 69.1 °F 79% 30.04 in 10.0 mi Variable 3.5 mph - N/A   Scattered Clouds
3:56 AM 75.9 °F - 68.0 °F 76% 30.03 in 10.0 mi ESE 5.8 mph - N/A   Partly Cloudy
4:56 AM 73.9 °F - 68.0 °F 82% 30.04 in 10.0 mi Calm Calm - N/A   Partly Cloudy
5:56 AM 73.0 °F - 69.1 °F 87% 30.05 in 10.0 mi SE 3.5 mph - N/A   Partly Cloudy
6:56 AM 73.0 °F - 69.1 °F 87% 30.07 in 10.0 mi Calm Calm - N/A   Partly Cloudy
7:56 AM 75.0 °F - 69.1 °F 82% 30.08 in 10.0 mi SE 3.5 mph - N/A   Scattered Clouds
8:56 AM 79.0 °F - 69.1 °F 72% 30.09 in 10.0 mi ESE 5.8 mph - N/A   Scattered Clouds
9:56 AM 82.0 °F 84.5 °F 66.9 °F 60% 30.11 in 10.0 mi ESE 11.5 mph 21.9 mph N/A   Scattered Clouds
10:56 AM 82.0 °F 84.5 °F 66.9 °F 60% 30.10 in 10.0 mi East 17.3 mph - N/A   Scattered Clouds
11:56 AM 82.9 °F 85.8 °F 68.0 °F 60% 30.08 in 10.0 mi ENE 17.3 mph - N/A   Scattered Clouds
12:56 PM 84.0 °F 86.3 °F 66.0 °F 55% 30.05 in 10.0 mi NE 18.4 mph - N/A   Partly Cloudy
1:56 PM 84.0 °F 86.5 °F 66.9 °F 56% 30.03 in 10.0 mi ENE 19.6 mph - N/A   Partly Cloudy
2:56 PM 82.9 °F 87.0 °F 70.0 °F 65% 30.01 in 10.0 mi ENE 17.3 mph 24.2 mph N/A   Partly Cloudy
3:56 PM 82.0 °F 85.5 °F 69.1 °F 65% 30.00 in 10.0 mi ENE 16.1 mph - N/A   Scattered Clouds
4:56 PM 81.0 °F 84.9 °F 71.1 °F 72% 30.01 in 10.0 mi ENE 13.8 mph - N/A   Scattered Clouds
5:56 PM 80.1 °F 83.2 °F 70.0 °F 71% 30.02 in 10.0 mi East 11.5 mph - N/A   Scattered Clouds
6:56 PM 78.1 °F - 72.0 °F 81% 30.03 in 9.0 mi East 9.2 mph - 0.00 in Rain Light Rain
7:56 PM 78.1 °F - 71.1 °F 79% 30.05 in 10.0 mi East 5.8 mph - 0.00 in   Scattered Clouds
8:56 PM 78.1 °F - 71.1 °F 79% 30.06 in 10.0 mi ESE 4.6 mph - 0.00 in   Partly Cloudy
9:56 PM 77.0 °F - 71.1 °F 82% 30.06 in 10.0 mi East 6.9 mph - N/A   Scattered Clouds
10:56 PM 77.0 °F - 71.1 °F 82% 30.06 in 10.0 mi ESE 3.5 mph - 0.00 in   Scattered Clouds
11:56 PM 75.9 °F - 70.0 °F 82% 30.06 in 10.0 mi SE 4.6 mph - N/A   Partly Cloudy